COSMOS 1375 DEB

Satellite information

Favourite Embed

Satellite Type and Status

DEBRISIN ORBIT

Key statistics

Satellite COSMOS 1375 DEB at a glance.

Uptime

15799

Days in orbit

Revolutions

≈ 14.0

Per day

Orbit

LEO

Low Earth Orbit

Inclination

65.8

Latest

Satellite identification and parameters

Extended collection of information and parameters for COSMOS 1375 DEB.

Object identification

Identified? True

Debris? True

Object name: COSMOS 1375 DEB

International designator: 1982-055AX

Object number (NORAD): 17805

Object ID (CCSDS): 17805

Country: COMMONWEALTH OF INDEPENDENT STATES (CIS)

Current information (Y/N): Y

RCS size: SMALL

Orbital parameters

Period: 102.589 minutes

Inclination: 65.822 deg

SMA: 7259.286 km

Apoapsis: 889.832 km

Periapsis: 872.471 km

RAAN: 313.3203 deg

Eccentricy: 0.0011958

Argument of periapsis: 327.184 deg

Mean anomaly: 211.568 deg

Mean motion: 14.03659784 rev/day

Mean motion (dot): 0.00001779 rev/day2

B* drag term: 0.0011853046 1/REarth

Two-line elements (TLE)

Creation date: Sept. 7, 2025, 3:09 a.m.

Reference frame: TEME

Reference center: EARTH

Epoch: Sept. 6, 2025, 9:58 p.m. UTC

TLE line 0: 0 COSMOS 1375 DEB

TLE line 1: 1 17805U 82055AX 25249.91556411 .00001779 00000-0 11853-2 0 9999

TLE line 2: 2 17805 65.8220 313.3203 0011958 327.1840 211.5680 14.03659784 18953

Live tracking on map

Real-time ground track for satellite COSMOS 1375 DEB.

In-orbit conjunctions

A list of the most updated potential collisions computed for object COSMOS 1375 DEB.

Target Orbit TCA Probability of collision Miss distance Type
DELTA 1 DEB SSO 2025-03-03 17:04:00 0.000180358 268.0 (m) DEBRIS
FENGYUN 1C DEB SSO 2024-10-29 01:03:59 0.0001392117 114.0 (m) DEBRIS
THOR ABLESTAR DEB LEO 2024-07-19 07:04:31 0.0003904917 86.0 (m) DEBRIS

Associated space launch

ASAT target satellite

COSMOS 1375 DEB was lifted into orbit during the mission ‘Kosmos-3M | DS-P1-M 16’, on board a Kosmos-3M space rocket.

The launch took place on June 6, 1982, 5:10 p.m. from 132/2.

For more information about the launch, click the button.

Launch to space Kosmos-3M | DS-P1-M 16
Kosmos-3M | DS-P1-M 16

Agency: N/A

Status: Launch Successful

Launch date: June 6, 1982, 5:10 p.m. UTC

Rocket: Kosmos-3M

Launch pad: 132/2

Location: Plesetsk Cosmodrome, Russian Federation

...

Latest news about this satellite

There are no fresh news available about this satellite. Check back as we update our databases every day.


Newsletter sign-up

Weekly statistics, charts and insights to help you stay on top of the space industry.